Flag for China Weather past 2 weeks in Guangzhou, Guangdong, China

Now
84 °F

Passing clouds.


Feels Like: 96 °F
Forecast: 82 / 98 °F
Wind: 1 mph from North

Location: Canton Airport

Current Time: Jul 1, 2015 at 5:28:37 AM

Latest Report: Jul 1, 2015 at 5:00 AM


Visibility: N/A

Pressure: 29.62 "Hg

Humidity: 84%

Dew point: 79 °F

Location of GuangzhouLocation

Historic Weather in Guangzhou — Graph

°F

Guangzhou temperature yesterday

Maximum temperature yesterday: 99 °F (at 3:00 PM)
Minimum temperature yesterday: 84 °F (at 3:00 AM)
Average temperature yesterday: 90 °F

Past Weeks' High & Low Weather Summary

 TemperatureHumidityPressure
High99 °F (Jun 30, 3:00 PM)100% (Jun 16, 5:00 AM)29.83 "Hg (Jun 16, 5:00 AM)
Low77 °F (Jun 22, 2:00 PM)47% (Jun 19, 6:00 PM)29.56 "Hg (Jun 22, 4:00 PM)
Average87 °F77%29.68 "Hg
* Reported Jun 16 4:00 AM — Jul 1 4:00 AM, Guangzhou, Weather by CustomWeather, © 2015

Note: Actual official high and low records may vary slightly from our data, if they occured in-between our weather recording intervals... More about our weather records

Advertising

Guangzhou weather history for previous 24 hours

 ConditionsComfort  
Time TempWeatherWind HumidityBarometerVisibility
4:00 AM
Wed, Jul 1
84 °FClear.3 mph84%29.59 "Hg10 mi
3:30 AM86 °FPassing clouds.3 mph79%29.62 "HgN/A
3:00 AM84 °FPassing clouds.3 mph84%29.62 "HgN/A
2:30 AM86 °FPassing clouds.6 mph75%29.62 "HgN/A
2:00 AM86 °FClear.6 mph75%29.62 "Hg10 mi
1:00 AM88 °FClear.8 mph70%29.65 "Hg10 mi
12:30 AM86 °FPassing clouds.6 mph79%29.65 "HgN/A
12:00 AM86 °FClear.3 mph84%29.65 "Hg10 mi
11:00 PM
Tue, Jun 30
88 °FPassing clouds.6 mph79%29.65 "HgN/A
10:30 PM88 °FPassing clouds.6 mph79%29.65 "HgN/A
9:30 PM90 °FPassing clouds.3 mph75%29.62 "HgN/A
9:00 PM90 °FPassing clouds.6 mph75%29.62 "HgN/A
8:30 PM90 °FPassing clouds.6 mph75%29.62 "HgN/A
8:00 PM90 °FPassing clouds.6 mph75%29.59 "HgN/A
7:30 PM90 °FPassing clouds.6 mph75%29.59 "HgN/A
7:00 PM91 °FScattered clouds.8 mph71%29.59 "HgN/A
6:30 PM93 °FPartly sunny.8 mph67%29.59 "HgN/A
6:00 PM93 °FPartly sunny.10 mph67%29.56 "HgN/A
5:30 PM93 °FPartly sunny.10 mph67%29.56 "HgN/A
5:00 PM95 °FPartly sunny.13 mph63%29.56 "HgN/A
4:30 PM95 °FPartly sunny.13 mph63%29.56 "HgN/A
4:00 PM97 °FPartly sunny.10 mph53%29.59 "HgN/A
3:30 PM95 °FPartly sunny.8 mph56%29.59 "HgN/A
3:00 PM99 °FPartly sunny.3 mph50%29.59 "HgN/A
2:30 PM95 °FPartly sunny.6 mph60%29.62 "HgN/A
2:00 PM95 °FPartly sunny.8 mph60%29.62 "HgN/A
1:30 PM95 °FPartly sunny.10 mph60%29.65 "HgN/A
1:00 PM93 °FPartly sunny.8 mph56%29.65 "HgN/A
12:30 PM95 °FPartly sunny.8 mph60%29.65 "HgN/A
11:30 AM93 °FPartly sunny.6 mph63%29.71 "HgN/A
11:00 AM91 °FPartly sunny.6 mph67%29.71 "HgN/A
10:30 AM91 °FPartly sunny.6 mph71%29.71 "HgN/A
10:00 AM90 °FPartly sunny.6 mph71%29.71 "HgN/A
9:30 AM88 °FPartly sunny.3 mph75%29.71 "HgN/A
9:00 AM90 °FPartly sunny.6 mph71%29.71 "HgN/A
8:30 AM90 °FPartly sunny.8 mph71%29.71 "HgN/A
8:00 AM88 °FScattered clouds.6 mph75%29.71 "HgN/A
7:00 AM86 °FScattered clouds.8 mph79%29.71 "HgN/A
6:30 AM84 °FPartly sunny.6 mph84%29.71 "HgN/A
6:00 AM84 °FPartly sunny.3 mph84%29.68 "HgN/A
5:30 AM84 °FPassing clouds.8 mph79%29.68 "HgN/A
5:00 AM84 °FPassing clouds.10 mph79%29.68 "HgN/A
Weather by CustomWeather, © 2015

See weather overviewHow to use our weather pages